| time (UTC) | temp F | wind direction | speed knots | gust knots | rain 1hr in | rain 24hr in | rain mn in | humidity % | barometer mb |
| 20260504223006 | 82 | 155 | 3.5 | 4.3 | 0.00 | 0.00 | 0.00 | 93 | 1009.0 |
| 20260504221505 | 82 | 165 | 3.5 | 4.3 | 0.00 | 0.00 | 0.00 | 93 | 1009.0 |
| 20260504220005 | 82 | 165 | 3.5 | 4.3 | 0.00 | 0.00 | 0.00 | 93 | 1009.0 |
| 20260504214505 | 82 | 165 | 3.5 | 4.3 | 0.00 | 0.00 | 0.00 | 93 | 1009.0 |
| 20260504213005 | 82 | 165 | 3.5 | 4.3 | 0.00 | 0.00 | 0.00 | 93 | 1009.0 |
| 20260504211505 | 83 | 158 | 3.5 | 4.3 | 0.00 | 0.00 | 0.00 | 93 | 1009.0 |
| 20260504210006 | 82 | 158 | 3.5 | 4.3 | 0.00 | 0.00 | 0.00 | 93 | 1009.0 |
| 20260504204507 | 82 | 158 | 3.5 | 4.3 | 0.00 | 0.00 | 0.00 | 93 | 1009.0 |
| 20260504203005 | 82 | 158 | 3.5 | 4.3 | 0.00 | 0.00 | 0.00 | 93 | 1009.0 |
| 20260504201506 | 83 | 164 | 3.5 | 4.3 | 0.00 | 0.00 | 0.00 | 93 | 1009.0 |
| 20260504200008 | 83 | 164 | 3.5 | 4.3 | 0.00 | 0.00 | 0.00 | 93 | 1009.0 |
| 20260504194506 | 83 | 164 | 3.5 | 4.3 | 0.00 | 0.00 | 0.00 | 93 | 1009.0 |
| 20260504193006 | 83 | 164 | 3.5 | 4.3 | 0.00 | 0.00 | 0.00 | 93 | 1009.0 |
| 20260504191505 | 83 | 171 | 2.6 | 2.6 | 0.00 | 0.00 | 0.00 | 94 | 1009.0 |
| 20260504190008 | 83 | 171 | 2.6 | 2.6 | 0.00 | 0.00 | 0.00 | 93 | 1009.0 |
| 20260504184505 | 83 | 171 | 2.6 | 2.6 | 0.00 | 0.00 | 0.00 | 93 | 1009.0 |
| 20260504183006 | 83 | 171 | 2.6 | 2.6 | 0.00 | 0.00 | 0.00 | 93 | 1009.0 |
| 20260504181506 | 82 | 193 | 2.6 | 2.6 | 0.00 | 0.00 | 0.00 | 94 | 1010.0 |
| 20260504180006 | 82 | 193 | 2.6 | 2.6 | 0.00 | 0.00 | 0.00 | 94 | 1010.0 |
| 20260504174505 | 82 | 171 | 3.5 | 3.5 | 0.00 | 0.00 | 0.00 | 95 | 1010.0 |
| 20260504173006 | 82 | 171 | 3.5 | 3.5 | 0.00 | 0.00 | 0.00 | 93 | 1010.0 |
| 20260504171505 | 83 | 184 | 3.5 | 2.6 | 0.00 | 0.00 | 0.00 | 91 | 1010.0 |
| 20260504130105 | 80 | 180 | 7.0 | 0.0 | 0.00 | 0.00 | 0.00 | 83 | 1011.0 |
| 20260504120104 | 80 | 180 | 7.0 | 0.0 | 0.00 | 0.00 | 0.00 | 83 | 1010.0 |
| 20260504110108 | 80 | 180 | 7.0 | 0.0 | 0.00 | 0.00 | 0.00 | 83 | 1009.0 |
| 20260504100108 | 80 | 220 | 2.6 | 0.0 | 0.00 | 0.00 | 0.00 | 83 | 1008.0 |
| 20260504090106 | 88 | 330 | 9.6 | 0.0 | 0.00 | 0.00 | 0.00 | 74 | 1008.0 |
| 20260504081602 | 89 | 60 | 11.3 | 0.0 | 0.00 | 0.00 | 0.00 | 71 | 1008.0 |
| 20260504080118 | 89 | 60 | 11.3 | 0.0 | 0.00 | 0.00 | 0.00 | 71 | 1008.0 |
| 20260504070112 | 89 | 60 | 11.3 | 0.0 | 0.00 | 0.00 | 0.00 | 71 | 1008.0 |
| 20260504050107 | 88 | 120 | 8.7 | 0.0 | 0.00 | 0.00 | 0.00 | 71 | 1009.0 |
| 20260504044558 | 88 | 120 | 8.7 | 0.0 | 0.00 | 0.00 | 0.00 | 71 | 1009.0 |
| 20260504043100 | 88 | 120 | 8.7 | 0.0 | 0.00 | 0.00 | 0.00 | 72 | 1009.0 |
| 20260504041558 | 88 | 120 | 8.7 | 0.0 | 0.00 | 0.00 | 0.00 | 71 | 1010.0 |
| 20260504040105 | 88 | 120 | 8.7 | 0.0 | 0.00 | 0.00 | 0.00 | 72 | 1010.0 |
| 20260504034558 | 88 | 120 | 8.7 | 0.0 | 0.00 | 0.00 | 0.00 | 73 | 1010.0 |
| 20260504033059 | 87 | 120 | 8.7 | 0.0 | 0.00 | 0.00 | 0.00 | 75 | 1010.0 |
| 20260504031559 | 87 | 120 | 8.7 | 0.0 | 0.00 | 0.00 | 0.00 | 75 | 1011.0 |
| 20260504024558 | 86 | 120 | 8.7 | 0.0 | 0.00 | 0.00 | 0.00 | 78 | 1011.0 |
| 20260504023100 | 85 | 110 | 7.0 | 0.0 | 0.00 | 0.00 | 0.00 | 81 | 1011.0 |
| 20260504021558 | 85 | 110 | 7.0 | 0.0 | 0.00 | 0.00 | 0.00 | 80 | 1011.0 |
| 20260504014558 | 85 | 90 | 7.0 | 0.0 | 0.00 | 0.00 | 0.00 | 83 | 1011.0 |
| 20260504013059 | 85 | 100 | 6.1 | 0.0 | 0.00 | 0.00 | 0.00 | 85 | 1011.0 |
| 20260504011600 | 85 | 115 | 3.5 | 5.2 | 0.00 | 0.00 | 0.00 | 85 | 1011.0 |
| 20260504010115 | 84 | 115 | 3.5 | 5.2 | 0.00 | 0.00 | 0.00 | 84 | 1011.0 |
| 20260504004601 | 82 | 115 | 3.5 | 5.2 | 0.00 | 0.00 | 0.00 | 85 | 1011.0 |
| 20260504003107 | 82 | 115 | 3.5 | 5.2 | 0.00 | 0.00 | 0.00 | 85 | 1011.0 |
| 20260504001600 | 82 | 137 | 3.5 | 5.2 | 0.00 | 0.00 | 0.00 | 90 | 1010.0 |
| 20260504000109 | 82 | 137 | 3.5 | 5.2 | 0.00 | 0.00 | 0.00 | 90 | 1010.0 |
| 20260503234601 | 82 | 130 | 3.5 | 6.1 | 0.00 | 0.00 | 0.00 | 91 | 1010.0 |
| 20260503233105 | 82 | 130 | 3.5 | 6.1 | 0.00 | 0.00 | 0.00 | 91 | 1010.0 |
| 20260503231600 | 82 | 146 | 3.5 | 5.2 | 0.00 | 0.00 | 0.00 | 93 | 1010.0 |
| 20260503224559 | 81 | 146 | 3.5 | 5.2 | 0.00 | 0.00 | 0.00 | 93 | 1010.0 |